Location: Roc des P�zouls
(43.9667°N, 3.5500°E)
Time: 11:10:00
(UTC+00:00)

Gbstr 26 Del rocket - Pass Details

Date: 14 November 2019
Orbit: 493 x 1264 km, 51.8° (Epoch: 10 December)

Event Time Altitude Azimuth Distance (km) Brightness Sun altitude
Exits shadow 06:03:41 - 265° (W) 2,029 5.1 -6.7°
Reaches altitude 10° 06:04:29 10° 268° (W) 1,717 4.8 -6.6°
Maximum altitude 06:08:03 39° 339° (NNW) 750 3.2 -6.0°
Drops below altitude 10° 06:11:38 10° 51° (NE) 1,709 5.8 -5.4°
Sets 06:13:57 0° 59° (ENE) 2,637 6.9 -5.0°
